Weather observations for the past three days for
Show Low, Show Low Regional Airport
Metric (Imperial)
Date Time (mst) Wind (kph) Vis. (km) Weather Sky Cond. Temperature (ºC) Relative Humidity Wind Chill (°C) Heat Index (°C) Pressure Precipitation (cm)
Air Dwpt 6 hour altimeter (cm) sea level (mb) 1 hr 3 hr 6 hr
Max. Min.
04 03:35 S 20 16.09 Fair CLR 17 14 83% 76.73 0.0
04 03:15 S 20 16.09 Partly Cloudy SCT090 17 14 83% 76.73 0.0
04 02:55 S 17 16.09 Mostly Cloudy BKN090 17 14 83% 76.73 0.0
04 02:35 S 13 16.09 Fair CLR 17 14 83% 76.73 0.0
04 02:15 S 17 16.09 A Few Clouds FEW090 17 14 83% 76.73 0.0
04 01:55 S 15 16.09 Fair CLR 16 13 83% 76.73 0.0
04 01:35 S 15 16.09 Fair CLR 17 13 77% 76.71 0.0
04 01:15 S 17 16.09 Fair CLR 17 13 77% 76.73 0.0
04 00:55 S 17 16.09 Fair CLR 17 13 77% 76.76 0.0
04 00:35 S 13 16.09 Fair CLR 17 13 77% 76.76 0.0
04 00:15 S 15 16.09 Fair CLR 18 13 73% 76.76 0.0
03 23:55 S 15 16.09 Fair CLR 18 13 73% 76.76 0.0
03 23:35 S 17 16.09 Fair CLR 18 13 73% 76.76 0.0
03 23:15 S 17 16.09 Fair CLR 18 13 73% 76.76 0.0
03 22:55 S 15 16.09 Fair CLR 18 13 73% 76.76 0.0
03 22:35 S 20 16.09 Fair CLR 18 13 73% 76.76 0.0
03 22:15 S 17 16.09 Fair CLR 18 13 73% 76.76 0.0
03 21:55 S 15 16.09 Fair CLR 19 13 68% 76.76 0.0
03 21:35 S 15 16.09 Fair CLR 19 13 68% 76.76 0.0
03 21:15 S 15 16.09 Fair CLR 20 13 64% 76.76 0.0
03 20:55 S 13 16.09 Fair CLR 20 13 64% 76.76 0.0
03 20:35 S 13 16.09 Fair CLR 20 13 64% 76.73 0.0
03 20:15 S 13 16.09 Fair CLR 20 12 60% 76.73 0.0
03 19:55 S 9 16.09 Partly Cloudy SCT100 21 12 57% 76.73 0.0
03 19:35 S 11 16.09 Overcast FEW075 OVC100 22 12 53% 76.71 0.0
03 19:15 S 13 16.09 Mostly Cloudy SCT075 BKN095 22 12 53% 76.71 0.0
03 18:55 SW 13 16.09 Partly Cloudy FEW075 SCT085 22 12 53% 76.68 0.0
03 18:35 SW 13 16.09 Overcast BKN080 OVC100 23 12 50% 76.68 0.0
03 18:15 SW 19 16.09 Mostly Cloudy SCT085 BKN100 24 11 44% 25 76.68 0.0
03 17:55 SW 20 16.09 Partly Cloudy SCT080 SCT100 24 11 44% 25 76.68 0.0
03 17:35 SW 19 G 28 16.09 Partly Cloudy SCT095 25 11 42% 26 76.68 0.0
03 17:15 SW 24 16.09 Fair CLR 25 11 42% 26 76.66 0.0
03 16:55 SW 19 16.09 A Few Clouds FEW085 26 11 39% 26 76.66 0.0
03 16:35 SW 24 16.09 Partly Cloudy FEW060 SCT085 26 11 39% 26 76.66 0.0
03 16:15 SW 17 G 26 16.09 Fair CLR 26 10 37% 26 76.68 0.0
03 15:55 SW 20 16.09 Fair CLR 26 11 39% 26 76.68 0.0
03 15:15 SW 17 G 30 16.09 A Few Clouds FEW055 FEW120 26 11 39% 26 76.71 0.0
03 14:55 SW 22 G 33 16.09 Partly Cloudy FEW055 FEW065 SCT090 25 11 42% 26 76.73 0.0
03 14:35 SW 22 G 33 16.09 A Few Clouds FEW055 FEW065 FEW110 26 11 39% 26 76.73 0.0
03 14:15 SW 26 16.09 Partly Cloudy SCT055 SCT120 25 11 42% 26 76.76 0.0
03 13:55 SW 24 G 33 16.09 Partly Cloudy FEW055 SCT110 26 11 39% 26 76.76 0.0
03 13:35 SW 19 G 31 16.09 Fair CLR 25 11 42% 26 76.78 0.0
03 13:15 S 13 16.09 Fair CLR 24 11 44% 25 76.81 0.0
03 12:55 SW 20 G 30 16.09 Partly Cloudy FEW038 FEW065 SCT110 24 11 44% 25 76.81 0.0
03 12:35 SW 20 G 31 16.09 Partly Cloudy FEW036 FEW043 SCT100 24 12 47% 25 76.84 0.0
03 12:15 S 19 G 30 16.09 A Few Clouds FEW049 FEW100 FEW120 24 12 47% 25 76.84 0.0
03 11:55 SW 19 G 30 16.09 Partly Cloudy SCT050 BKN060 SCT095 25 11 42% 26 76.84 0.0
03 11:35 SW 24 16.09 Partly Cloudy SCT050 SCT075 SCT095 26 11 39% 26 76.86 0.0
03 11:15 S 22 16.09 A Few Clouds FEW100 FEW120 25 12 44% 26 76.89 0.0
03 10:55 SW 19 G 31 16.09 Partly Cloudy FEW100 SCT120 24 12 47% 25 76.94 0.0
03 10:35 S 24 16.09 Fair CLR 23 12 50% 76.91 0.0
03 10:15 S 17 G 26 16.09 Fair CLR 23 11 47% 76.91 0.0
03 09:55 S 20 16.09 Fair CLR 22 11 50% 76.91 0.0
03 09:35 S 17 16.09 Fair CLR 22 11 50% 76.91 0.0
03 09:15 SW 15 16.09 Fair CLR 23 11 47% 76.91 0.0
03 08:55 S 9 16.09 Fair CLR 22 11 50% 76.94 0.0
03 08:35 S 7 16.09 Fair CLR 21 10 50% 76.94 0.0
03 08:15 S 13 16.09 Fair CLR 21 12 57% 76.91 0.0
03 07:55 SW 9 16.09 Fair CLR 21 12 57% 76.94 0.0
03 07:35 S 9 16.09 Fair CLR 20 12 60% 76.91 0.0
03 07:15 S 7 16.09 Fair CLR 19 12 64% 76.91 0.0
03 06:55 SE 7 16.09 Fair CLR 17 12 73% 76.91 0.0
03 06:35 SE 7 16.09 Fair CLR 15 11 77% 76.89 0.0
03 06:15 S 11 16.09 Fair CLR 14 11 82% 76.89 0.0
03 05:35 S 11 16.09 A Few Clouds FEW055 15 11 77% 76.86 0.0
03 05:15 S 11 16.09 Partly Cloudy SCT060 15 11 77% 76.86 0.0
03 04:55 S 11 16.09 Fair CLR 15 11 77% 76.86 0.0
03 04:35 S 11 16.09 Fair CLR 16 11 72% 76.84 0.0
03 04:15 S 15 16.09 Fair CLR 16 11 72% 76.84 0.0
03 03:55 S 17 16.09 Fair CLR 16 11 72% 76.84 0.0
03 03:35 S 13 16.09 Fair CLR 16 11 72% 76.84 0.0
03 03:15 S 15 16.09 Fair CLR 16 11 72% 76.86 0.0
03 02:55 S 15 16.09 A Few Clouds FEW070 16 11 72% 76.86 0.0
03 02:35 S 13 16.09 Fair CLR 16 11 72% 76.86 0.0
03 02:15 S 13 16.09 Fair CLR 16 11 72% 76.86 0.0
03 01:55 S 11 16.09 Fair CLR 16 11 72% 76.86 0.0
03 01:35 S 7 16.09 Fair CLR 16 11 72% 76.86 0.0
03 01:15 S 11 16.09 Fair CLR 16 11 72% 76.89 0.0
03 00:55 S 11 16.09 Fair CLR 17 11 68% 76.89 0.0
03 00:35 S 13 16.09 Fair CLR 16 11 72% 76.89 0.0
03 00:15 S 11 16.09 Fair CLR 16 11 72% 76.91 0.0
02 23:55 S 7 16.09 Fair CLR 16 11 72% 76.91 0.0
02 23:35 S 13 16.09 Fair CLR 17 11 68% 76.89 0.0
02 23:15 S 11 16.09 Fair CLR 17 11 68% 76.89 0.0
02 22:55 S 15 16.09 Fair CLR 18 10 60% 76.89 0.0
02 22:35 S 13 16.09 Fair CLR 18 10 60% 76.91 0.0
02 22:15 S 15 16.09 Fair CLR 17 11 68% 76.91 0.0
02 21:55 S 11 16.09 Fair CLR 17 11 68% 76.91 0.0
02 21:35 SW 7 16.09 Fair CLR 17 11 68% 76.91 0.0
02 21:15 S 13 16.09 Fair CLR 18 11 64% 76.91 0.0
02 20:55 S 13 16.09 Fair CLR 19 11 60% 76.91 0.0
02 20:35 S 11 16.09 Fair CLR 19 10 56% 76.91 0.0
02 20:15 SW 11 16.09 Fair CLR 20 10 53% 76.89 0.0
02 19:55 SW 11 16.09 Fair CLR 20 10 53% 76.86 0.0
02 19:35 SW 11 16.09 Fair CLR 21 11 53% 76.84 0.0
02 19:15 SW 13 16.09 Fair CLR 21 10 50% 76.84 0.0
02 18:55 SW 13 16.09 Fair CLR 22 10 47% 76.81 0.0
02 18:35 SW 15 16.09 Fair CLR 23 10 44% 76.81 0.0
02 18:15 SW 20 16.09 Fair CLR 24 10 41% 25 76.81 0.0
02 17:55 SW 17 G 28 16.09 Fair CLR 25 10 39% 26 76.81 0.0
02 17:35 SW 20 16.09 Fair CLR 25 9 36% 26 76.78 0.0
02 17:15 SW 20 16.09 Fair CLR 25 9 36% 26 76.81 0.0
02 16:55 W 24 16.09 Fair CLR 26 9 34% 26 76.81 0.0
02 16:35 W 22 16.09 Fair CLR 26 7 30% 26 76.81 0.0
02 16:15 SW 24 16.09 Fair CLR 27 7 28% 26 76.81 0.0
02 15:55 SW 24 G 35 16.09 Fair CLR 27 7 28% 26 76.84 0.0
02 15:35 SW 22 G 35 16.09 A Few Clouds FEW075 27 8 30% 26 76.84 0.0
02 15:15 SW 26 G 41 16.09 Fair CLR 27 7 28% 26 76.86 0.0
02 14:55 SW 22 16.09 Fair CLR 27 7 28% 26 76.86 0.0
02 14:35 SW 20 G 39 16.09 Fair CLR 27 7 28% 26 76.89 0.0
02 14:15 SW 22 G 35 16.09 Fair CLR 26 6 28% 26 76.89 0.0
02 13:55 SW 22 G 37 16.09 Fair CLR 26 8 32% 26 76.91 0.0
02 13:35 SW 20 G 31 16.09 Fair CLR 26 8 32% 26 76.94 0.0
02 13:15 SW 26 G 35 16.09 Fair CLR 26 8 32% 26 76.96 0.0
02 12:55 S 24 G 35 16.09 A Few Clouds FEW060 FEW070 26 8 32% 26 76.99 0.0
02 12:35 S 22 16.09 Partly Cloudy SCT060 SCT065 SCT120 25 10 39% 26 76.99 0.0
02 12:15 S 20 G 31 16.09 A Few Clouds FEW055 FEW085 FEW120 25 11 42% 26 77.01 0.0
02 11:55 SW 24 16.09 Fair CLR 25 9 36% 26 77.01 0.0
02 11:35 S 22 16.09 Fair CLR 25 9 36% 26 77.04 0.0
02 11:15 W 17 G 28 16.09 Fair CLR 25 10 39% 26 77.04 0.0
02 10:55 SW 20 16.09 Fair CLR 25 10 39% 26 77.06 0.0
02 10:35 SW 24 16.09 Fair CLR 24 11 44% 25 77.06 0.0
02 10:15 SW 19 G 28 16.09 Fair CLR 24 11 44% 25 77.06 0.0
02 09:55 SW 20 16.09 Fair CLR 24 12 47% 25 77.06 0.0
02 09:35 S 13 G 24 16.09 Fair CLR 23 12 50% 77.04 0.0
02 09:15 S 15 16.09 Fair CLR 23 12 50% 77.04 0.0
02 08:55 S 17 16.09 Fair CLR 22 13 57% 77.04 0.0
02 08:35 S 15 16.09 Fair CLR 22 13 57% 77.04 0.0
02 08:15 S 17 16.09 Fair CLR 21 13 60% 77.04 0.0
02 07:55 S 17 16.09 Fair CLR 21 12 57% 77.04 0.0
02 07:35 S 11 16.09 Fair CLR 20 12 60% 77.04 0.0
02 07:15 S 13 16.09 Fair CLR 18 12 68% 77.04 0.0
02 06:55 S 13 16.09 Fair CLR 17 12 73% 77.04 0.0
02 06:35 S 11 16.09 Fair CLR 15 11 77% 77.01 0.0
02 06:15 S 7 16.09 Fair CLR 13 11 88% 76.99 0.0
02 05:55 S 11 16.09 Fair CLR 13 11 88% 76.99 0.0
02 05:35 S 13 16.09 Fair CLR 13 11 88% 76.99 0.0
02 05:15 S 7 16.09 Fair CLR 14 12 88% 76.99 0.0
02 04:55 S 11 16.09 Fair CLR 15 12 82% 76.96 0.0
02 04:35 S 13 16.09 Fair CLR 14 12 88% 76.96 0.0
02 04:15 S 9 16.09 Fair CLR 14 12 88% 76.96 0.0
02 03:55 S 9 16.09 Fair CLR 14 11 82% 76.99 0.0
02 03:35 S 15 16.09 Fair CLR 15 11 77% 76.99 0.0
02 03:15 S 13 16.09 Fair CLR 15 11 77% 76.99 0.0
02 02:55 S 17 16.09 Fair CLR 15 11 77% 76.99 0.0
02 02:35 S 17 16.09 Fair CLR 16 11 72% 76.99 0.0
02 02:15 S 15 16.09 Fair CLR 15 11 77% 76.99 0.0
02 01:55 S 17 16.09 Fair CLR 15 11 77% 76.99 0.0
02 01:35 S 11 16.09 Fair CLR 14 11 82% 76.99 0.0
02 01:15 S 9 16.09 Fair CLR 14 11 82% 76.99 0.0
02 00:55 S 13 16.09 Fair CLR 15 11 77% 76.99 0.0
02 00:35 S 9 16.09 Fair CLR 15 11 77% 76.99 0.0
02 00:15 S 11 16.09 Fair CLR 16 11 72% 76.99 0.0
01 23:55 S 9 16.09 Fair CLR 16 11 72% 76.99 0.0
01 23:35 S 11 16.09 Fair CLR 16 11 72% 76.99 0.0
01 23:15 S 13 16.09 Fair CLR 17 11 68% 76.99 0.0
01 22:55 S 15 16.09 Fair CLR 17 11 68% 76.99 0.0
01 22:35 S 15 16.09 Fair CLR 17 11 68% 76.99 0.0
01 22:15 S 15 16.09 Fair CLR 18 11 64% 76.99 0.0
01 21:55 S 15 16.09 Fair CLR 18 11 64% 76.99 0.0
01 21:35 S 15 16.09 Fair CLR 18 11 64% 76.99 0.0
01 21:15 S 7 16.09 Fair CLR 18 11 64% 76.99 0.0
01 20:55 S 15 16.09 Fair CLR 19 11 60% 76.96 0.0
01 20:35 S 13 16.09 Fair CLR 18 11 64% 76.94 0.0
01 19:55 SW 11 16.09 Fair CLR 20 10 53% 76.89 0.0
01 19:35 SW 9 16.09 Fair CLR 20 10 53% 76.86 0.0
01 19:15 SW 11 16.09 Fair CLR 21 10 50% 76.84 0.0
01 18:55 SW 11 16.09 Fair CLR 21 10 50% 76.84 0.0
01 18:35 W 13 16.09 Fair CLR 22 10 47% 76.84 0.0
01 18:15 W 13 G 24 16.09 Fair CLR 24 10 41% 25 76.84 0.0
01 17:55 W 20 16.09 Fair CLR 24 9 39% 25 76.84 0.0
01 17:35 W 15 16.09 A Few Clouds FEW075 25 9 36% 26 76.84 0.0
01 17:15 W 15 16.09 Fair CLR 26 7 30% 26 76.84 0.0
01 16:55 W 19 16.09 Fair CLR 26 7 30% 26 76.84 0.0
01 16:35 SW 19 16.09 Fair CLR 26 4 24% 26 76.84 0.0
01 16:15 SW 15 G 28 16.09 Fair CLR 27 5 24% 26 76.84 0.0
01 15:55 SW 17 G 28 16.09 Fair CLR 27 6 26% 26 76.84 0.0
01 15:35 W 15 16.09 A Few Clouds FEW080 FEW090 27 6 26% 26 76.84 0.0
01 15:15 W 13 G 26 16.09 Partly Cloudy SCT080 SCT090 27 8 30% 26 76.86 0.0
01 14:55 Calm 16.09 Mostly Cloudy FEW080 BKN090 26 8 32% 26 76.86 0.0
01 14:35 W 9 16.09 Mostly Cloudy FEW080 BKN090 BKN120 25 9 36% 26 76.89 0.0
01 14:15 Calm 16.09 Mostly Cloudy BKN095 25 8 34% 26 76.89 0.0
01 13:55 Calm 16.09 A Few Clouds FEW095 25 8 34% 26 76.91 0.0
01 13:35 Vrbl 6 16.09 Fair CLR 25 9 36% 26 76.94 0.0
01 13:15 N 9 16.09 Fair CLR 25 10 39% 26 76.96 0.0
01 12:55 Calm 16.09 Fair CLR 25 9 36% 26 76.99 0.0
01 12:35 Calm 16.09 Fair CLR 24 10 41% 25 76.99 0.0
01 12:15 Vrbl 6 16.09 Fair CLR 24 9 39% 25 77.01 0.0
01 11:55 Calm 16.09 Fair CLR 23 10 44% 77.01 0.0
01 11:35 Vrbl 7 16.09 Fair CLR 23 12 50% 77.01 0.0
01 11:15 NE 6 14.48 Fair CLR 23 11 47% 77.04 0.0
01 10:55 N 9 16.09 Fair CLR 23 12 50% 77.06 0.0
01 10:35 Vrbl 7 16.09 Fair CLR 22 11 50% 77.06 0.0
01 10:15 NW 11 16.09 Fair CLR 22 11 50% 77.06 0.0
01 09:35 Calm 16.09 Fair CLR 21 10 50% 77.04 0.0
01 09:15 NW 6 16.09 Fair CLR 20 11 56% 77.04 0.0
01 08:55 Calm 16.09 Fair CLR 20 10 53% 77.04 0.0
01 08:35 Calm 16.09 Fair CLR 19 10 56% 77.01 0.0
01 08:15 Vrbl 7 16.09 Fair CLR 19 10 56% 77.01 0.0
01 07:55 SW 7 16.09 Fair CLR 18 11 64% 77.01 0.0
01 07:35 S 7 16.09 Fair CLR 18 11 64% 76.99 0.0
01 07:15 S 6 16.09 Fair CLR 16 11 72% 76.99 0.0
01 06:55 SW 6 16.09 Fair CLR 15 11 77% 76.96 0.0
01 06:35 S 6 16.09 Fair CLR 13 10 82% 76.96 0.0
01 06:15 Calm 16.09 Fair CLR 11 9 88% 76.94 0.0
01 05:55 SW 7 16.09 Fair CLR 11 9 88% 76.94 0.0
01 05:35 S 7 16.09 Fair CLR 11 9 88% 76.91 0.0
01 05:15 S 11 16.09 Fair CLR 12 9 82% 76.91 0.0
01 04:55 S 7 16.09 Fair CLR 11 9 88% 76.91 0.0
01 04:35 Calm 16.09 Fair CLR 12 9 82% 76.91 0.0
01 04:15 S 9 16.09 Fair CLR 12 10 88% 76.89 0.0
01 03:55 S 13 16.09 Fair CLR 12 10 88% 76.91 0.0
Date Time (mst) Wind (kph) Vis. (km) Weather Sky Cond. Air Dwpt Max. Min. Relative Humidity Wind Chill (°C) Heat Index (°C) altimeter (cm) sea level (mb) 1 hr 3 hr 6 hr
6 hour
Temperature (ºC) Pressure Precipitation (cm)